sat.trackr.live / text

‹ back to catalog

STARLINK-5009

NORAD 53928 · 2022-119AU

PAYLOAD ACTIVE UNKNOWN

§ Identity

Operator
Country
US
Launch date
2022-09-24
Launch site
AFETR
Launch vehicle
Mass (kg)
RCS (m²)

Purposes: comms

External: N2YO · Heavens-Above · Gunter

§ Orbital elements

Epoch: 2026-05-25T04:15:22.078368Z

Period
95.44 min
Inclination
53.2138°
Eccentricity
0.0001306
Mean motion
15.08832294 rev/d
Perigee alt
538.9 km
Apogee alt
540.7 km
Semi-major
6,917.9 km
B*
-1.2534e-5
RAAN
320.6513°
Arg perigee
97.4714°
Mean anomaly
262.6427°
Rev number
20,351

§ Raw data

STARLINK-50091 53928U 22119AU  26145.17733887 -.00000487  00000+0 -12534-4 0  99932 53928  53.2138 320.6513 0001306  97.4714 262.6427 15.08832294203515

JSON: /api/v1/satellites/53928 · /tle

For live sub-satellite position, see the globe view (requires WebGL).

§ Visibility from observer

Set your observer location to see the next 7 days of passes ≥ 10°. The values pass through the URL so the page stays shareable.

No JS? Fill the form by hand. The geolocation button needs JavaScript.